Location: 81360 Arifat, France
(43.7204°N, 2.3408°E)
Time: 04:40:17
(UTC+01:00)

ACS3 Solar Sail - Pass Details

Date: 22 October 2025
Orbit: 909 x 993 km, 97.3° (Epoch: 13 November)

Event Time Altitude Azimuth Distance (km) Brightness Sun altitude
Rises 03:55:06 0° 31° (NNE) 3,558 5.4 -45.6°
Reaches altitude 10° 03:59:01 10° 57° (ENE) 2,621 4.6 -45.0°
Maximum altitude 04:01:45 13° 86° (E) 2,385 4.3 -44.6°
Enters shadow 04:02:36 13° 95° (E) 2,411 4.2 -44.5°
